Location: Chaumontel
(49.1247°N, 2.4324°E)
Time: 23:52:36
(UTC+00:00)

IRIDIUM 103 - Pass Details

Date: 23 May 2025
Orbit: 775 x 779 km, 86.4° (Epoch: 12 June)

Event Time Altitude Azimuth Distance (km) Brightness Sun altitude
Exits shadow 02:01:58 15° 247° (WSW) 2,008 6.0 -14.1°
Maximum altitude 02:04:49 23° 288° (WNW) 1,633 5.9 -13.8°
Drops below altitude 10° 02:08:54 10° 339° (NNW) 2,342 7.3 -13.5°
Sets 02:11:46 0° 354° (N) 3,274 8.4 -13.2°
